Location: Biltmore Gardens
(41.6070°N, 83.4666°W)
Time: 13:50:30
(UTC+00:00)

Lacrosse 5 - Pass Details

Date: 14 July 2020
Orbit: 717 x 720 km, 57.0° (Epoch: 02 August)

Event Time Altitude Azimuth Distance (km) Brightness Sun altitude
Exits shadow 06:47:15 17° 281° (W) 1,778 3.8 -24.9°
Maximum altitude 06:50:15 29° 330° (NNW) 1,301 3.5 -24.7°
Drops below altitude 10° 06:54:40 10° 31° (NNE) 2,207 5.4 -24.5°
Sets 06:57:21 0° 42° (NE) 3,130 6.3 -24.3°
